STARLINK-38073

Last updated on Sun Aug 09 2026 00:02:04 GMT+0000 (Coordinated Universal Time)

1 69986U 26159M 26220.53417399 .00132983 00000+0 87815-3 0 9991 2 69986 97.2823 60.5426 0001170 95.5824 264.5575 15.75202731 5705
UTC large
Height (km)
Speed (km/s)
/
Latitude / Longitude
Inclination (degrees)
Orbital Period (minutes)
Azimuth
Elevation
Range (km)
Doppler Factor

Next 0 passes for location: London (51.5072 / 0.1276)

No passes found over London.
STARLINK-38073